Everett, WA

6:44 PM PST on December 15, 2019 (GMT -0800)
Snohomish County

Weather History for KPAE - November, 2019

Change the Weather History Date:

Tuesday, November 12, 2019

  Actual Average Record
Temperature  
Mean Temperature 48 °F -  
Max Temperature 50 °F 51 °F 64 °F (1990)
Min Temperature 45 °F 39 °F 10 °F (1955)
Degree Days  
Heating Degree Days 18    
Moisture  
Dew Point 46 °F    
Average Humidity 92    
Maximum Humidity 97    
Minimum Humidity 80    
Precipitation  
Precipitation 0.17 in - - ()
Sea Level Pressure  
Sea Level Pressure 30.14 in    
Wind  
Wind Speed 4 mph (SSE)    
Max Wind Speed 8 mph    
Max Gust Speed -    
Visibility 7 miles    
Events Fog , Rain    
Averages and records for this station are not official NWS values.
T = Trace of Precipitation, MM = Missing Value Source: NWS Daily Summary

Daily Weather History Graph

Daily Weather History Graph

Search for Another Location

Airport or City:

Astronomy

Nov. 12, 2019 Rise Set
Actual Time 7:10 AM PST 4:35 PM PST
Civil Twilight 6:37 AM PST 5:08 PM PST
Nautical Twilight 5:59 AM PST 5:46 PM PST
Astronomical Twilight 5:23 AM PST 6:22 PM PST
Moon 5:07 PM PST (11/12) 7:04 AM PST (11/12)
Length of Visible Light 10h 31m
Length of Day
9h 24m
Full, 100% of the Moon is Illuminated
Nov 12
Full
Nov 19
Last Quarter
Nov 26
New
Dec 3
First Quarter
Dec 11
Full

Hourly Weather History & Observations

Time (PST) Temp. Windchill Dew Point Humidity Pressure Visibility Wind Dir Wind Speed Gust Speed Precip Events Conditions
12:53 AM 46.9 °F - 43.0 °F 86% 30.13 in 10.0 mi North 4.6 mph - N/A   Overcast
1:53 AM 46.9 °F - 41.0 °F 80% 30.10 in 10.0 mi NNW 4.6 mph - N/A   Overcast
2:53 AM 46.9 °F - 43.0 °F 86% 30.07 in 10.0 mi Calm Calm - N/A   Overcast
3:53 AM 46.0 °F 44.8 °F 43.0 °F 89% 30.06 in 10.0 mi West 3.5 mph - N/A   Overcast
4:53 AM 46.0 °F 44.8 °F 44.1 °F 93% 30.08 in 6.0 mi WNW 3.5 mph - 0.03 in Rain Light Rain
5:48 AM 46.4 °F 45.2 °F 44.6 °F 93% 30.06 in 4.0 mi Variable 3.5 mph - 0.06 in Rain Light Rain
5:53 AM 46.0 °F 43.9 °F 44.1 °F 93% 30.07 in 4.0 mi NNW 4.6 mph - 0.07 in Rain Light Rain
6:18 AM 46.0 °F 43.9 °F 44.1 °F 93% 30.07 in 4.0 mi North 4.6 mph - 0.01 in Rain Light Rain
7:53 AM 45.0 °F - 43.0 °F 93% 30.11 in 5.0 mi Calm Calm - 0.04 in Rain Light Rain
8:19 AM 45.0 °F 42.6 °F 43.0 °F 93% 30.11 in 8.0 mi SSE 4.6 mph - 0.01 in Rain Light Rain
8:53 AM 46.0 °F - 44.1 °F 93% 30.12 in 9.0 mi Calm Calm - 0.01 in   Overcast
9:35 AM 46.0 °F 44.8 °F 44.1 °F 93% 30.11 in 10.0 mi Variable 3.5 mph - N/A Fog Patches of Fog
9:53 AM 46.9 °F - 44.1 °F 90% 30.12 in 10.0 mi Variable 5.8 mph - N/A Fog Patches of Fog
10:53 AM 46.9 °F - 45.0 °F 93% 30.14 in 9.0 mi South 6.9 mph - N/A Fog Patches of Fog
11:14 AM 48.0 °F - 45.0 °F 89% 30.13 in 10.0 mi South 8.1 mph - N/A   Overcast
11:53 AM 48.9 °F - 45.0 °F 86% 30.13 in 10.0 mi South 6.9 mph - N/A   Overcast
12:53 PM 50.0 °F - 46.0 °F 86% 30.13 in 10.0 mi South 8.1 mph - N/A   Overcast
1:53 PM 50.0 °F - 46.0 °F 86% 30.14 in 9.0 mi South 5.8 mph - N/A   Overcast
2:53 PM 50.0 °F - 46.0 °F 86% 30.15 in 6.0 mi South 6.9 mph - 0.00 in Rain Light Rain
3:53 PM 48.9 °F - 46.0 °F 90% 30.16 in 6.0 mi South 5.8 mph - 0.01 in Rain Light Rain
4:53 PM 48.9 °F - 46.9 °F 93% 30.17 in 2.5 mi SSE 4.6 mph - 0.00 in   Overcast
5:22 PM 48.9 °F - 46.9 °F 93% 30.16 in 4.0 mi SSE 5.8 mph - 0.01 in   Overcast
5:53 PM 48.9 °F - 46.9 °F 93% 30.16 in 6.0 mi Calm Calm - 0.01 in   Overcast
6:00 PM 48.9 °F - 46.9 °F 93% 30.16 in 6.0 mi Calm Calm - N/A   Overcast
6:46 PM 48.9 °F - 46.9 °F 93% 30.17 in 7.0 mi South 4.6 mph - N/A   Overcast
6:53 PM 48.9 °F - 46.9 °F 93% 30.17 in 7.0 mi SSE 4.6 mph - N/A   Overcast
7:53 PM 48.9 °F - 48.0 °F 97% 30.18 in 6.0 mi South 4.6 mph - N/A   Overcast
8:53 PM 48.9 °F - 48.0 °F 97% 30.18 in 5.0 mi Calm Calm - N/A   Overcast
9:00 PM 48.9 °F - 48.0 °F 97% 30.17 in 5.0 mi Calm Calm - N/A   Overcast
9:12 PM 50.0 °F - 46.9 °F 89% 30.17 in 6.0 mi SE 3.5 mph - N/A   Overcast
9:20 PM 50.0 °F - 48.0 °F 93% 30.17 in 6.0 mi ESE 4.6 mph - N/A   Overcast
9:53 PM 48.9 °F - 46.9 °F 93% 30.19 in 6.0 mi Calm Calm - N/A   Overcast
10:01 PM 48.9 °F - 46.9 °F 93% 30.18 in 5.0 mi Calm Calm - N/A   Overcast
10:24 PM 48.9 °F - 46.9 °F 93% 30.18 in 5.0 mi ESE 5.8 mph - N/A   Mostly Cloudy
10:40 PM 48.0 °F - 46.9 °F 96% 30.18 in 2.0 mi ESE 5.8 mph - N/A   Mostly Cloudy
10:53 PM 48.0 °F - 46.9 °F 96% 30.19 in 3.0 mi Calm Calm - N/A   Overcast
11:53 PM 48.9 °F - 46.9 °F 93% 30.19 in 9.0 mi Calm Calm - N/A   Overcast